Location: ?????
(31.8092°N, 35.2590°E)
Time: 11:42:45
(UTC+00:00)

Cosmos 1455 Rocket - Pass Details

Date: 21 October 2021
Orbit: 604 x 630 km, 82.5° (Epoch: 26 November)

Event Time Altitude Azimuth Distance (km) Brightness Sun altitude
Rises 16:12:20 0° 207° (SSW) 2,876 6.9 -16.0°
Reaches altitude 10° 16:14:44 10° 217° (SW) 1,979 6.2 -16.5°
Maximum altitude 16:18:39 32° 281° (W) 1,083 5.0 -17.4°
Drops below altitude 10° 16:22:37 10° 344° (NNW) 2,003 5.8 -18.2°
Sets 16:25:04 0° 355° (N) 2,917 6.6 -18.7°
